Pottstown, PA

3:13 PM EST on January 19, 2018 (GMT -0500)
Pottstown Limerick

Weather History for KPTW - February, 2013

Change the Weather History Date:

Tuesday, February 12, 2013

  Actual Average (KRDG) Record (KRDG)
Temperature  
Mean Temperature 36 °F -  
Max Temperature 45 °F 39 °F 72 °F (1999)
Min Temperature 28 °F 23 °F -4 °F (1979)
Degree Days  
Heating Degree Days 28    
Moisture  
Dew Point 25 °F    
Average Humidity 59    
Maximum Humidity 81    
Minimum Humidity 45    
Precipitation  
Precipitation 0.00 in - - ()
Sea Level Pressure  
Sea Level Pressure 29.92 in    
Wind  
Wind Speed 9 mph (WNW)    
Max Wind Speed 18 mph    
Max Gust Speed 30 mph    
Visibility 10 miles    
Events      
Averages and records for this station are not official NWS values.
T = Trace of Precipitation, MM = Missing Value Source: NWS Daily Summary

Daily Weather History Graph

Daily Weather History Graph

Search for Another Location

Airport or City:

Trip Planner

Search our weather history database for the weather conditions in past years. The results will help you decide how hot, cold, wet, or windy it might be!

Date:

Astronomy

Feb. 12, 2013 Rise Set
Actual Time 6:58 AM EST 5:34 PM EST
Civil Twilight 6:30 AM EST 6:02 PM EST
Nautical Twilight 5:59 AM EST 6:34 PM EST
Astronomical Twilight 5:27 AM EST 7:06 PM EST
Moon 7:54 AM EST (2/12) 8:33 PM EST (2/12)
Length of Visible Light 11h 31m
Length of Day
10h 35m
Waxing Crescent, 7% of the Moon is Illuminated
Feb 12
Waxing Crescent
Feb 17
First Quarter
Feb 25
Full
Mar 4
Last Quarter
Mar 11
New

Hourly Weather History & Observations

Time (EST) Temp. Windchill Dew Point Humidity Pressure Visibility Wind Dir Wind Speed Gust Speed Precip Events Conditions
12:54 AM 39.9 °F 33.9 °F 30.9 °F 70% 29.78 in 10.0 mi WNW 9.2 mph - N/A   Clear
1:54 AM 39.9 °F 33.9 °F 28.0 °F 63% 29.80 in 10.0 mi WNW 9.2 mph - N/A   Clear
2:54 AM 37.9 °F 35.5 °F 28.0 °F 68% 29.81 in 10.0 mi West 3.5 mph - N/A   Clear
3:54 AM 37.9 °F 33.5 °F 28.9 °F 70% 29.84 in 10.0 mi WNW 5.8 mph - N/A   Overcast
4:54 AM 39.9 °F 31.4 °F 25.0 °F 55% 29.85 in 10.0 mi WNW 16.1 mph 24.2 mph N/A   Overcast
5:54 AM 39.9 °F 35.1 °F 25.0 °F 55% 29.87 in 10.0 mi WNW 6.9 mph - N/A   Overcast
6:54 AM 39.0 °F 36.8 °F 26.1 °F 60% 29.88 in 10.0 mi Variable 3.5 mph - N/A   Overcast
7:54 AM 39.9 °F 35.8 °F 25.0 °F 55% 29.91 in 10.0 mi West 5.8 mph - N/A   Overcast
8:54 AM 41.0 °F 33.9 °F 25.0 °F 53% 29.93 in 10.0 mi WNW 12.7 mph 23.0 mph N/A   Partly Cloudy
9:54 AM 42.1 °F 33.6 °F 25.0 °F 51% 29.94 in 10.0 mi WNW 18.4 mph 29.9 mph N/A   Scattered Clouds
10:54 AM 43.0 °F 36.4 °F 25.0 °F 49% 29.96 in 10.0 mi WNW 12.7 mph 29.9 mph N/A   Clear
11:54 AM 44.1 °F 36.8 °F 26.1 °F 49% 29.97 in 10.0 mi West 16.1 mph 23.0 mph N/A   Mostly Cloudy
12:54 PM 43.0 °F 36.4 °F 25.0 °F 49% 29.96 in 10.0 mi West 12.7 mph 23.0 mph N/A   Clear
1:54 PM 45.0 °F 39.3 °F 25.0 °F 46% 29.96 in 10.0 mi WNW 11.5 mph - N/A   Partly Cloudy
2:54 PM 44.1 °F 37.1 °F 24.1 °F 45% 29.93 in 10.0 mi NNW 15.0 mph 24.2 mph N/A   Partly Cloudy
3:54 PM 42.1 °F 35.7 °F 24.1 °F 49% 29.87 in 10.0 mi WNW 11.5 mph - N/A   Clear
4:54 PM 39.9 °F 31.8 °F 24.1 °F 53% 29.96 in 10.0 mi WNW 15.0 mph 21.9 mph N/A   Clear
5:54 PM 37.9 °F 31.5 °F 24.1 °F 57% 29.99 in 10.0 mi WNW 9.2 mph - N/A   Clear
6:54 PM 37.0 °F 34.5 °F 23.0 °F 57% 30.00 in 10.0 mi NW 3.5 mph - N/A   Clear
7:54 PM 35.1 °F 32.2 °F 23.0 °F 61% 29.99 in 10.0 mi NNW 3.5 mph - N/A   Clear
8:54 PM 34.0 °F - 23.0 °F 64% 29.96 in 10.0 mi Calm Calm - N/A   Clear
9:54 PM 28.9 °F - 23.0 °F 78% 29.95 in 10.0 mi Calm Calm - N/A   Clear
10:54 PM 28.9 °F - 23.0 °F 78% 29.97 in 10.0 mi Calm Calm - N/A   Clear
11:54 PM 28.0 °F - 23.0 °F 81% 29.97 in 10.0 mi Calm Calm - N/A   Clear